USA 56

Satellite information

Favourite Embed

Satellite Type and Status

PAYLOADIN ORBIT

Key statistics

Satellite USA 56 at a glance.

Uptime

12872

Days in orbit

Revolutions

≈ 14.8

Per day

Orbit

LEO

Low Earth Orbit

Inclination

89.9

Latest

Satellite identification and parameters

Extended collection of information and parameters for USA 56.

Object identification

Identified? True

Debris? False

Object name: USA 56

International designator: 1990-031A

Object number (NORAD): 20560

Object ID (CCSDS): 20560

Country: UNITED STATES OF AMERICA (US)

Current information (Y/N): Y

RCS size: MEDIUM

Orbital parameters

Period: 97.506 minutes

Inclination: 89.8537 deg

SMA: 7017.481 km

Apoapsis: 684.277 km

Periapsis: 594.416 km

RAAN: 267.2847 deg

Eccentricy: 0.0064027

Argument of periapsis: 57.1215 deg

Mean anomaly: 303.6146 deg

Mean motion: 14.76831193 rev/day

Mean motion (dot): 0.00000696 rev/day2

B* drag term: 0.00009351 1/REarth

Two-line elements (TLE)

Creation date: July 8, 2025, 2:27 a.m.

Reference frame: TEME

Reference center: EARTH

Epoch: July 7, 2025, 6:30 p.m. UTC

TLE line 0: 0 USA 56

TLE line 1: 1 20560U 90031A 25188.77136578 .00000696 00000-0 93510-4 0 9997

TLE line 2: 2 20560 89.8537 267.2847 0064027 57.1215 303.6146 14.76831193 61857

Live tracking on map

Real-time ground track for satellite USA 56.

In-orbit conjunctions

There are no conjunctions computed for USA 56, at the moment. Check back to stay up to date, as we update our databases every day.

Go to all conjunctions

Associated space launch

POGS & SSR was a satellite designed to measure the Earth's magnetic field. TEX and SCE studied ionospheric effects on RF transmissions.

USA 56 was lifted into orbit during the mission ‘Atlas E Altair | POGS & SSR, TEX, SCE’, on board a Atlas E Altair space rocket.

The launch took place on April 11, 1990, 3 p.m. from Space Launch Complex 3W.

For more information about the launch, click the button.

Launch to space Atlas E Altair | POGS & SSR, TEX, SCE
Atlas E Altair | POGS & SSR, TEX, SCE

Agency: N/A

Status: Launch Successful

Launch date: April 11, 1990, 3 p.m. UTC

Rocket: Atlas E Altair

Launch pad: Space Launch Complex 3W

Location: Vandenberg SFB, CA, USA

...

Latest news about this satellite

There are no fresh news available about this satellite. Check back as we update our databases every day.


Newsletter sign-up

Weekly statistics, charts and insights to help you stay on top of the space industry.